Home   Weather   Faridkot   Past weeks

Flag for India Past Weather in Faridkot, Punjab, India — Yesterday and Last 2 Weeks

75 °F


Feels Like: 77 °F
Forecast: 66 / 91 °F
Wind: 5 mph from Northeast

Location: Lahore Airport

Current Time: Oct 22, 2016 at 12:03:36 AM

Latest Report: Oct 21, 2016 at 11:25 PM

Visibility: 2 mi

Pressure: 29.83 "Hg

Humidity: 69%

Dew Point: 64 °F

Location of FaridkotLocation

Past Weather in Faridkot — Graph


Faridkot Temperature Yesterday

Maximum temperature yesterday: 90 °F (at 12:55 PM)
Minimum temperature yesterday: 66 °F (at 6:30 AM)
Average temperature yesterday: 76 °F

High & Low Weather Summary for the Past Weeks

High97 °F (Oct 12, 3:25 PM)89% (Oct 7, 1:55 AM)29.95 "Hg (Oct 7, 1:55 AM)
Low64 °F (Oct 19, 6:25 AM)20% (Oct 13, 3:25 PM)29.68 "Hg (Oct 9, 3:55 PM)
Average81 °F57%29.79 "Hg
* Reported Oct 6 10:55 PM — Oct 21 10:55 PM, Faridkot, Weather by CustomWeather, © 2016

Note: Actual official high and low records may vary slightly from our data, if they occured in-between our weather recording intervals... More about our weather records


Faridkot Weather History for the Previous 24 Hours

Scroll right to see more
Time TempWeatherWind HumidityBarometerVisibility
10:55 PM
Fri, Oct 21
77 °FClear.3 mph65%29.83 "Hg2 mi
8:25 PM81 °FClear.No wind58%29.80 "Hg2 mi
7:25 PM82 °FClear.3 mph58%29.80 "Hg2 mi
5:25 PM86 °FClear.6 mph49%29.77 "Hg2 mi
4:55 PM86 °FHaze.6 mph46%29.77 "Hg2 mi
4:25 PM88 °FHaze.6 mph43%29.77 "Hg2 mi
2:25 PM90 °FHaze.5 mph38%29.77 "Hg2 mi
1:25 PM90 °FHaze.5 mph41%29.80 "Hg1 mi
12:55 PM90 °FHaze.7 mph41%29.80 "Hg1 mi
12:25 PM88 °FHaze.8 mph43%29.83 "Hg1 mi
11:25 AM82 °FClear.5 mph51%29.86 "Hg1 mi
10:55 AM79 °FClear.3 mph58%29.86 "Hg1 mi
10:25 AM77 °FClear.3 mph61%29.86 "Hg1 mi
9:55 AM75 °FClear.No wind65%29.86 "Hg1 mi
9:25 AM73 °FClear.3 mph69%29.83 "Hg1 mi
8:55 AM72 °FClear.3 mph73%29.83 "Hg1 mi
8:25 AM70 °FFog.5 mph78%29.83 "Hg1 mi
8:00 AM66 °FFog.5 mph88%29.83 "Hg1 mi
7:30 AM66 °FFog.No wind88%29.80 "Hg1 mi
7:00 AM66 °FFog.3 mph88%29.80 "Hg1 mi
6:30 AM66 °FFog.6 mph88%29.77 "Hg1 mi
5:25 AM68 °FFog.3 mph83%29.77 "Hg2 mi
4:55 AM68 °FFog.No wind83%29.77 "Hg2 mi
4:25 AM68 °FFog.No wind83%29.74 "Hg2 mi
4:00 AM70 °FClear.No wind78%29.74 "Hg2 mi
3:25 AM72 °FClear.5 mph73%29.74 "Hg2 mi
2:55 AM72 °FClear.3 mph73%29.74 "Hg2 mi
2:25 AM73 °FClear.5 mph69%29.74 "Hg2 mi
1:55 AM73 °FClear.5 mph69%29.74 "Hg2 mi
1:25 AM75 °FClear.No wind65%29.74 "Hg2 mi
12:55 AM75 °FClear.No wind65%29.77 "Hg2 mi
12:25 AM75 °FClear.6 mph65%29.77 "Hg2 mi
Weather by CustomWeather, © 2016

See weather overviewHow to use our weather pages